User: anonymous   Login
Location: Unspecified
(0.0000°N, 0.0000°E)
Time: 09:10:25
(UTC+00:00)
Language:

BEESAT 2 - Orbit

View from above orbital plane
View from above orbital plane
View from above satellite
View from above satellite

Ground track
Ground track

The orbit data is extracted from the following two-line orbital elements,

1 39136U 13015G   20023.50618724  .00000616  00000-0  40519-4 0  9998
2 39136  64.8710  57.1652 0030892 279.0816  80.6815 15.17289863373361
Epoch (UTC): 23 January 2020 12:08:54
Eccentricity: 0.0030892
inclination: 64.8710°
perigee height: 493 km
apogee height: 535 km
right ascension of ascending node: 57.1652°
argument of perigee: 279.0816°
revolutions per day: 15.17289863
mean anomaly at epoch: 80.6815°
orbit number at epoch: 37336

The dashed part of the orbit path shows where the satellite is in the earth's shadow,  

DLR